Vertical_Velocity
-2 -2 -1 -0 -2 -3 -2 -2 -4 -4 -3 -1 5 -1 -8 -10 -11 -5 -9 -12 -7 1 -3 -6 -3 -11 -2 -2 -3 -1 5 -1 -3 12 -2 5 4 0 6 -4 -1 10 2 -3 7
-1 -2 -2 -1 -0 -0 1 -2 -4 -4 -4 -5 -9 -10 -8 -1 -3 1 -2 3 -7 -1 -12 -10 -9 -0 2 -4 -4 -2 -3 5 14 -1 3 8 3 -1 -1 5 -2 6 1 2 -4
-1 -1 -1 -1 -2 -2 0 -1 0 -2 -1 -2 -5 -7 -6 -7 -11 -5 -5 4 3 -11 -2 -6 -13 -10 1 -5 5 -1 -5 3 6 16 -1 1 5 -2 3 -2 -2 11 20 11 -1
-1 1 -0 -1 -0 -1 -0 -0 -3 -1 -1 -3 -1 -1 -3 -3 0 -7 -1 -0 9 2 1 2 5 5 -5 -14 1 -2 0 0 -8 1 -2 9 -6 -1 3 1 2 9 1 3 -19
0 -0 0 -1 -0 -0 -1 -0 -2 -1 -0 -0 -1 1 -0 5 -6 4 0 -3 -6 -1 -3 6 4 -3 -4 -1 -0 -3 3 12 1 -1 7 -2 11 1 -5 7 7 5 -2 5 -1
-0 -1 -0 -0 0 1 -0 0 -2 0 -3 -2 -2 -2 -0 -8 -2 -1 -1 1 -1 -1 1 -5 -5 -1 -3 -6 -2 -4 -1 4 -1 2 -15 -10 -4 12 10 5 2 6 -2 5 15
-1 -1 0 -0 1 1 1 -0 1 -2 1 -1 -1 -4 0 -4 -4 2 -2 -8 -4 -4 -3 -7 -2 -2 -3 1 -2 -4 -10 3 2 -20 -1 2 -18 -12 -10 4 4 2 8 4 9
1 -1 -1 -1 -1 0 0 0 1 -5 -1 2 -3 -3 -2 -4 -2 8 -2 -1 -3 -1 -4 -6 -6 -1 0 -2 1 -3 1 -4 -2 10 -4 10 -36 10 -15 5 4 8 7 7 11
-1 -1 0 -1 -1 -0 -1 1 -1 -4 -3 -3 -5 1 -4 4 -7 -5 -3 -7 -8 -9 -8 -4 -5 -2 -0 0 -2 -2 -4 0 -13 9 -2 12 -12 -8 -11 2 3 3 11 12 5
0 -1 -1 -0 -2 -1 -1 0 -1 -1 -0 -6 -2 -3 0 -7 -3 -7 -7 -9 -8 -7 3 -3 -8 -1 5 2 -2 -2 -1 -1 -1 3 -2 7 -9 -0 -0 4 9 10 18 7 12
-0 -1 -1 -1 -2 -1 0 -1 -1 -1 1 -6 -1 0 3 3 -4 -3 -6 -3 0 1 -6 -3 -2 -11 -2 1 1 3 -0 2 4 6 2 -1 0 11 18 4 -6 0 6 2 -2
1 0 -1 -1 -1 -1 0 -0 0 2 -2 -6 -3 -3 -1 -6 4 -3 3 -5 -6 -4 -0 -2 -5 2 -3 -0 -0 2 0 1 1 -1 -5 11 8 13 6 1 -3 -7 -3 5 1
-1 1 -0 -1 -2 -2 -1 1 0 -0 -1 -6 -4 0 -7 -0 -7 -9 -4 -6 -5 -2 -1 -5 -0 4 -4 -1 0 -0 -1 -1 0 -2 -1 1 14 -5 10 9 8 -11 -12 4 3
-2 -0 1 1 4 -0 -1 1 -0 -1 -1 -1 -1 -2 3 -1 -3 -8 -7 -2 -3 -4 -2 -4 1 -1 2 -2 -1 -1 -2 0 0 1 2 1 0 -2 2 4 3 5 -21 5 6
0 -1 -2 -3 -2 -0 -1 -0 -1 -2 -7 2 -4 2 -3 -5 -3 -1 -4 -6 -2 -1 -4 2 1 -7 -2 -4 0 -1 -3 -3 2 2 7 5 -6 -1 1 -2 5 5 7 -14 -5
-1 -1 -1 -0 -1 -1 -1 -1 -0 -2 -8 -3 1 -4 -2 -5 -0 3 0 5 -3 -1 1 -1 3 -5 5 -1 1 -0 -2 -2 -6 1 -3 5 -1 -3 -2 -2 5 -2 -4 10 10
1 -1 -2 -1 -1 -2 -2 -2 -2 -10 -4 1 -6 -4 -2 -3 -3 -6 -9 -14 -17 -14 -10 -0 -0 3 -1 0 1 -1 1 -3 -6 -5 1 5 -3 2 2 -3 -2 5 -0 -2 -1
1 -0 -2 -1 -1 -2 -2 -2 -12 -2 -4 -2 -1 2 -4 -5 -2 -2 -4 -2 -1 -2 -2 -6 -17 -4 1 -3 -1 -3 -1 -0 -2 -1 -4 3 -2 -2 -1 3 1 -4 -5 1 -2
-0 -2 0 -1 -3 -3 -1 -10 -3 -2 -2 -3 -2 -4 0 -1 -2 -0 1 -2 -2 -3 -3 -4 -1 1 -1 -1 -2 2 -4 -1 -1 1 -1 1 -2 -1 1 -4 -5 -7 -5 -8 -3
-0 -1 -1 -2 -2 -1 1 -8 -3 -1 -1 -2 -2 -3 -4 -4 -1 2 -2 1 1 1 0 -1 -6 -1 1 1 -0 -1 0 -1 -0 -5 -2 -3 -1 -1 4 5 3 5 2 -5 -5
-1 -1 1 -1 1 3 -9 -4 -3 -1 -1 -2 -1 -1 0 -2 -1 -2 -2 -1 0 2 2 0 1 1 -0 -3 -1 -4 -2 1 -1 1 -4 -2 -5 -1 -2 1 -0 2 3 7 2
0 -1 -0 1 4 -6 -5 -2 0 -1 -2 -1 -1 -1 0 -0 -1 -0 1 2 0 0 -0 2 0 -4 -0 -1 1 0 2 0 -1 -2 0 -1 -5 -1 -2 -5 -0 -5 -2 3 4
1 1 -0 -2 -4 -2 -1 -1 -1 -2 -2 -1 0 2 2 0 -2 0 1 0 1 -1 -0 -3 -2 -7 -3 -3 -1 0 -1 1 0 2 -0 -2 -2 -2 -2 -5 -7 -1 -3 -7 -5
-0 -0 -0 -1 -3 -2 -1 0 -2 -2 -1 1 1 0 1 1 2 -1 1 -2 -0 0 -0 -0 1 2 -3 1 0 -3 1 1 -1 0 0 -4 -4 3 3 3 0 -6 -4 3 -3
-2 -1 -2 -3 -2 -2 -1 0 0 -1 2 2 2 -0 0 -3 -3 -3 -0 3 1 0 1 1 -1 -1 5 -1 -1 -1 -1 2 0 1 -2 -2 -5 -2 -0 0 1 4 3 -3 -1
-5 -4 -3 -3 -4 -2 -1 -1 -0 1 2 4 2 2 3 -1 1 -4 -0 1 -3 -2 -2 -1 -2 -3 -6 1 -0 -7 1 -1 -0 0 -2 -2 -6 -3 -3 -3 -3 -1 -1 2 4
4 1 1 -2 -4 -3 -2 -1 -1 -3 1 -2 -1 -1 -2 1 2 3 1 -0 -1 -3 -0 -1 0 -0 -5 -1 -1 -4 -2 -2 -2 1 0 -0 -0 0 -0 -2 -3 -3 -3 -2 -4
Height
3122 3120 3118 3115 3112 3110 3108 3107 3103 3098 3093 3088 3081 3072 3068 3065 3063 3058 3056 3055 3052 3050 3046 3045 3044 3040 3038 3038 3040 3042 3041 3035 3042 3047 3048 3052 3055 3063 3069 3076 3083 3087 3092 3097 3102
3123 3120 3118 3115 3113 3110 3109 3108 3102 3098 3094 3085 3073 3069 3062 3058 3056 3052 3051 3046 3044 3043 3042 3042 3041 3038 3035 3032 3033 3034 3034 3035 3038 3036 3037 3040 3049 3054 3061 3066 3073 3078 3085 3090 3093
3124 3121 3118 3115 3112 3109 3107 3106 3103 3097 3088 3078 3071 3064 3059 3056 3053 3051 3048 3045 3043 3042 3038 3035 3033 3031 3028 3028 3028 3026 3025 3030 3029 3027 3028 3031 3039 3044 3048 3055 3062 3068 3078 3085 3087
3126 3122 3119 3115 3112 3110 3107 3105 3101 3094 3086 3079 3072 3066 3060 3057 3062 3055 3046 3044 3042 3038 3035 3034 3028 3023 3021 3019 3020 3020 3021 3022 3021 3020 3020 3024 3030 3035 3039 3045 3051 3058 3066 3074 3079
3126 3122 3119 3116 3113 3110 3106 3105 3101 3093 3088 3081 3074 3069 3067 3063 3054 3049 3046 3043 3038 3032 3028 3023 3020 3017 3017 3016 3014 3014 3015 3016 3014 3012 3015 3015 3020 3024 3028 3038 3045 3051 3059 3065 3072
3127 3122 3119 3115 3112 3109 3106 3104 3101 3095 3089 3082 3074 3068 3066 3061 3053 3050 3046 3041 3036 3031 3027 3022 3019 3015 3013 3012 3012 3011 3011 3009 3009 3010 3008 3010 3012 3011 3023 3033 3035 3043 3051 3057 3063
3127 3123 3119 3115 3112 3109 3105 3104 3102 3097 3091 3084 3078 3071 3067 3061 3056 3050 3046 3040 3035 3031 3026 3022 3019 3016 3014 3013 3011 3009 3007 3004 3003 3005 3006 3012 3006 3008 3020 3026 3029 3040 3047 3052 3058
3127 3123 3119 3115 3112 3109 3105 3103 3101 3096 3091 3086 3078 3071 3065 3058 3056 3058 3049 3041 3035 3031 3026 3021 3019 3016 3014 3012 3009 3007 3004 3000 3000 3002 3004 3004 3004 3012 3017 3021 3028 3036 3043 3047 3052
3126 3122 3119 3115 3111 3108 3105 3102 3100 3096 3091 3086 3078 3072 3067 3068 3059 3049 3046 3041 3036 3032 3025 3021 3018 3016 3013 3010 3008 3006 3003 3002 3001 3001 3000 3000 3002 3008 3015 3018 3025 3031 3039 3043 3044
3126 3122 3118 3115 3111 3107 3104 3101 3099 3097 3093 3085 3082 3076 3072 3064 3059 3054 3046 3041 3035 3030 3028 3022 3018 3015 3012 3009 3007 3005 3003 3002 3001 3002 3000 2997 3001 3009 3014 3015 3017 3024 3027 3034 3037
3126 3122 3118 3115 3111 3107 3104 3100 3101 3099 3094 3088 3085 3080 3076 3071 3063 3056 3050 3043 3037 3032 3026 3021 3018 3011 3009 3007 3006 3005 3003 3001 3000 2999 2998 2998 3003 3006 3006 3009 3011 3017 3019 3028 3031
3126 3122 3118 3115 3111 3106 3103 3099 3096 3097 3094 3090 3083 3077 3074 3068 3065 3056 3050 3043 3036 3030 3027 3023 3017 3014 3008 3006 3004 3003 3003 3001 2999 2999 3000 2997 3001 3001 3004 3009 3012 3015 3017 3024 3030
3125 3122 3118 3115 3110 3106 3102 3100 3095 3094 3094 3090 3084 3077 3072 3068 3062 3054 3049 3044 3037 3032 3027 3025 3022 3015 3008 3006 3003 3002 3003 3002 3001 2998 2998 2998 2998 2999 3000 3002 3009 3012 3017 3022 3027
3125 3121 3118 3115 3113 3106 3102 3099 3094 3093 3093 3093 3086 3081 3079 3070 3065 3059 3051 3045 3039 3034 3029 3027 3022 3016 3010 3007 3005 3003 3002 3001 3000 2999 2996 2997 2998 2999 3001 3003 3005 3005 3014 3017 3024
3125 3121 3118 3114 3110 3106 3103 3098 3094 3094 3095 3095 3089 3084 3077 3075 3070 3061 3053 3045 3041 3036 3034 3030 3021 3015 3010 3008 3006 3005 3002 3000 2999 2998 2998 2997 2998 3001 3003 3005 3005 3007 3011 3016 3022
3125 3122 3118 3115 3111 3106 3101 3098 3096 3096 3096 3096 3092 3087 3082 3075 3068 3063 3057 3052 3043 3039 3034 3031 3025 3020 3015 3011 3007 3004 3002 3001 3000 2998 2998 2998 2999 3004 3003 3003 3008 3008 3011 3012 3015
3126 3123 3119 3116 3112 3106 3102 3098 3098 3097 3101 3097 3091 3084 3078 3073 3068 3062 3056 3048 3043 3039 3035 3031 3029 3022 3019 3013 3011 3007 3003 3002 3005 3002 3002 3000 3000 3006 3005 3005 3003 3003 3011 3014 3018
3126 3123 3119 3116 3112 3107 3103 3100 3097 3102 3099 3095 3089 3085 3079 3072 3067 3063 3059 3054 3048 3043 3039 3036 3031 3027 3023 3018 3014 3010 3008 3008 3015 3012 3005 3001 3007 3009 3008 3007 3008 3008 3009 3014 3018
3127 3123 3120 3116 3112 3108 3105 3100 3103 3101 3098 3093 3088 3083 3080 3075 3070 3063 3060 3056 3052 3048 3046 3040 3037 3033 3028 3022 3019 3015 3014 3014 3012 3009 3009 3009 3011 3010 3009 3009 3010 3010 3009 3009 3010
3127 3124 3121 3116 3112 3109 3106 3102 3102 3100 3096 3092 3088 3084 3079 3075 3072 3067 3063 3060 3055 3051 3048 3045 3038 3034 3032 3029 3023 3019 3018 3016 3014 3020 3023 3012 3012 3012 3012 3011 3010 3011 3012 3011 3012
3128 3125 3121 3116 3114 3111 3104 3103 3101 3098 3096 3092 3088 3084 3081 3076 3072 3069 3067 3063 3059 3055 3050 3045 3043 3038 3034 3031 3027 3024 3021 3019 3020 3021 3026 3026 3015 3013 3011 3010 3009 3009 3009 3010 3009
3129 3126 3122 3118 3117 3109 3106 3103 3101 3097 3094 3091 3087 3084 3081 3077 3072 3070 3068 3065 3062 3058 3053 3048 3043 3037 3037 3034 3031 3029 3026 3023 3023 3023 3020 3020 3016 3011 3009 3009 3008 3005 3004 3004 3005
3128 3125 3122 3119 3115 3111 3107 3105 3101 3097 3093 3090 3086 3084 3081 3077 3074 3070 3069 3066 3063 3058 3056 3052 3047 3041 3036 3037 3033 3031 3029 3026 3023 3022 3019 3021 3016 3012 3010 3008 3005 3004 3003 3001 3000
3128 3125 3122 3119 3116 3112 3108 3105 3101 3096 3092 3089 3087 3084 3080 3077 3075 3071 3069 3066 3062 3059 3055 3052 3048 3047 3046 3040 3035 3031 3029 3027 3025 3023 3019 3017 3014 3013 3010 3007 3006 3004 3002 2999 2997
3129 3126 3123 3119 3117 3113 3109 3105 3101 3096 3093 3089 3086 3084 3081 3077 3073 3070 3066 3063 3060 3058 3055 3053 3048 3043 3039 3034 3031 3028 3027 3026 3023 3022 3020 3015 3011 3010 3008 3007 3005 3002 3001 2999 2996
3129 3125 3122 3120 3117 3113 3109 3105 3101 3097 3093 3089 3086 3082 3080 3077 3074 3067 3064 3062 3059 3056 3054 3051 3048 3042 3034 3032 3030 3026 3025 3024 3021 3019 3016 3012 3009 3008 3005 3003 3002 3000 2998 2996 2995
3129 3126 3124 3120 3116 3113 3110 3105 3101 3096 3093 3089 3085 3081 3079 3076 3071 3066 3062 3059 3057 3055 3051 3049 3046 3041 3034 3031 3027 3024 3023 3022 3020 3017 3014 3011 3010 3007 3006 3003 3000 2998 2995 2993 2991